Location: Napa Soda Springs
(38.3907°N, 122.2794°W)
Time: 07:56:25
(UTC+00:00)

Cosmos 1455 - Pass Details

Date: 29 October 2020
Orbit: 499 x 521 km, 82.5° (Epoch: 02 December)

Event Time Altitude Azimuth Distance (km) Brightness Sun altitude
Rises 13:31:38 0° 358° (N) 2,657 5.7 -12.6°
Reaches altitude 10° 13:33:49 10° 3° (N) 1,765 4.9 -12.1°
Maximum altitude 13:37:37 51° 81° (E) 662 3.2 -11.4°
Drops below altitude 10° 13:41:21 10° 158° (SSE) 1,750 5.3 -10.7°
Sets 13:43:31 0° 163° (SSE) 2,631 6.2 -10.3°
